Location: Oak Glen
(34.0495°N, 116.9470°E)
Time: 12:58:43
(UTC-08:00)

Tiangong 2 - Pass Details

Date: 07 October 2017
Orbit: 386 x 390 km, 42.8° (Epoch: 14 December)

Event Time Altitude Azimuth Distance (km) Brightness Sun altitude
Exits shadow 14:31:52 12° 254° (WSW) 1,314 3.2 -9.1°
Maximum altitude 14:34:46 59° 334° (NNW) 452 1.2 -8.5°
Drops below altitude 10° 14:37:57 10° 55° (NE) 1,422 4.8 -7.8°
Sets 14:40:03 0° 59° (ENE) 2,281 6.1 -7.4°
